Regional Weather Roundup
Issued by NWS Sioux Falls, SD

Home | Current Version | Previous Version | Text Only | Print | Product List | Glossary On
Versions: 1 2 3 4 5 6 7 8 9 10 11 12 13 14 15 16 17 18 19 20 21 22 23 24 25 26 27 28 29 30 31 32 33 34 35 36 37 38 39 40 41 42 43 44 45 46 47 48 49 50
000
ASUS43 KFSD 231010
RWRFSD

WEATHER ROUNDUP FOR SE SOUTH DAKOTA/SW MINNESOTA/NW IOWA
NATIONAL WEATHER SERVICE SIOUX FALLS SD
400 AM CST TUE JAN 23 2018

NOTE: "FAIR" INDICATES FEW OR NO CLOUDS BELOW 12,000 FEET WITH NO
SIGNIFICANT WEATHER AND OR OBSTRUCTIONS TO VISIBILITY.


SDZ038>040-050-052>070-231100-
SOUTHEAST SOUTH DAKOTA

CITY           SKY/WX    TMP DP  RH WIND       PRES   REMARKS
BROOKINGS      CLOUDY    20  18  92 N17       30.01R WCI   5
CHAMBERLAIN    CLOUDY    23  23 100 W7        30.08R FOG     WCI  15
HURON          CLOUDY    20  19  96 N10       30.08R FOG     WCI   9
MADISON        CLOUDY    19  19 100 N17       30.01R WCI   4
MITCHELL       CLOUDY    21  20  96 N14       30.09R WCI   8
SIOUX FALLS    CLOUDY    22  21  96 NW18      30.02R WCI   7
WINNER         FOG       12   8  84 SW5       30.06F VSB 1/4 WCI   4
YANKTON        LGT SNOW  20  18  92 NW23      30.06R FOG     WCI   3
$$

MNZ071-072-080-081-089-090-097-098-231100-
SOUTHWEST MINNESOTA

CITY           SKY/WX    TMP DP  RH WIND       PRES   REMARKS
FAIRMONT       CLOUDY    23  21  92 NW23      29.92R WCI   7
JACKSON        CLOUDY    23  19  86 N22G36    29.94R WCI   8
LUVERNE        CLOUDY    21  19  93 N13       30.00R WCI   9
MARSHALL       CLOUDY    23  19  85 N22       30.00R WCI   8
MONTEVIDEO     CLOUDY    25  18  74 N16       30.01S WCI  12
PIPESTONE      CLOUDY    19  19 100 N12G18    29.98S WCI   7
REDWOOD FALLS  PTCLDY    22  18  85 NW13      29.98R WCI  10
TRACY          CLOUDY    24  22  93 NW17      29.98R WCI  10
WINDOM         CLOUDY    21   9  58 NW24G30   29.95R WCI   4
WORTHINGTON    FLURRIES  22  20  92 N22       29.96R WCI   6
$$

IAZ001>003-012>014-020>022-031-032-NEZ013-014-SDZ071-231100-
NORTHWEST IOWA

CITY           SKY/WX    TMP DP  RH WIND       PRES   REMARKS
CHEROKEE       CLOUDY    25  23  92 NW15G21   29.99R WCI  13
DENISON        CLOUDY    27  25  93 N18G33    29.98R WCI  13
ESTHERVILLE    CLOUDY    22  21  96 N25       29.93R FOG     WCI   5
LE MARS        CLOUDY    25  23  93 N15G21    30.02R WCI  12
ORANGE CITY    CLOUDY    23  21  93 N13G18    29.99R WCI  11
SHELDON        CLOUDY    23  21  93 N23       29.97R WCI   7
SIOUX CITY     CLOUDY    24  22  91 N23       30.02R WCI   9
SPENCER        LGT SNOW  24  20  84 N21G31    29.96R FOG     WCI   9
STORM LAKE     CLOUDY    25  23  93 NW21      29.94R WCI  10
$$

ABBREVIATIONS USED IN REMARKS
   TC - TEMPERATURE IN CELSIUS
  WCI - WIND CHILL INDEX
   HX - HEAT INDEX
  VSB - VISIBILITY





USA.gov is the U.S. government's official web portal to all federal, state and local government web resources and services.